[[{"header":{"parameterUnit":"m.s-1","parameterCategory":2,"la1":30.2991,"la2":30.254,"lo1":-89.0895,"lo2":-89.0444,"dy":0.0017,"dx":0.0017,"nx":28,"ny":28,"refTime":"2023-07-22T09:00:00:Z","depth":"0","parameterNumber":2,"parameterNumberName":"U-component_of_CURRENTS"},"data":[0,0,0,0,0,0,0,0,0,0,0,0,0,0,0,0,0,0,0,0,0,0,0,0,0,0,0,0,0,0,0,0,0,0,0,0,0,0,0,0,0,0,0,0,0,0,0,0,0,0,0,0,0,0,0,0,0,0,0.1645,0.1646,0,0.182,0.1823,0.1825,0.182,0.1817,0.1814,0.1811,0.1825,0.1828,0.1831,0,0,0,0,0,0,0,0,0,0,0,0,0,0.1551,0.1552,0.1645,0.1646,0.1648,0.182,0.1823,0.1826,0.182,0.1817,0.1813,0.181,0.1824,0.1828,0.1831,0,0,0,0,0,0,0,0,0,0,0,0,0,0.165,0.1552,0.1644,0.1662,0.1665,0.1819,0.1823,0.1827,0.1821,0.1817,0.1812,0.1808,0.1823,0.1827,0.1832,0.1948,0,0,0.1846,0.1848,0,0,0,0,0,0,0,0,0.1644,0.1654,0.1658,0.1661,0.1664,0.1789,0.1795,0.1857,0.1822,0.1767,0.1811,0.1806,0.1798,0.1804,0.1857,0.1949,0.1949,0.1846,0.1849,0.1851,0.1853,0,0,0,0,0,0,0,0.1637,0.1648,0.172,0.166,0.1664,0.1745,0.1753,0.1809,0.1806,0.1772,0.177,0.1783,0.1798,0.1853,0.1857,0.195,0.1846,0.185,0.1853,0.1855,0.223,0.2237,0,0,0,0,0,0,0.1597,0.164,0.1714,0.1724,0.1637,0.1749,0.1758,0.1758,0.1809,0.1812,0.1787,0.1782,0.1847,0.1851,0.1857,0.2,0.1851,0.1856,0.1858,0.2223,0.2231,0.2239,0,0,0,0,0,0,0.1594,0.1601,0.1707,0.1683,0.1701,0.1753,0.1755,0.1763,0.1828,0.1821,0.1821,0.1841,0.1844,0.185,0.1972,0.1999,0.1858,0.1862,0.2214,0.2225,0.2235,0.2284,0,0,0,0,0,0,0.1591,0.1599,0.1625,0.168,0.17,0.182,0.1759,0.177,0.1839,0.1835,0.1868,0.1864,0.1841,0.1967,0.1977,0.2003,0.1866,0.2205,0.2219,0.2232,0.2273,0.2295,0.2314,0,0,0,0,0,0.1587,0.1636,0.1625,0.1636,0.172,0.1823,0.1846,0.1871,0.1846,0.1908,0.1953,0.1864,0.2057,0.1978,0.1988,0.2015,0.2199,0.2215,0.2231,0.2264,0.2291,0.2313,0,0,0,0,0,0,0.1633,0.1641,0.163,0.1684,0.1753,0.182,0.1882,0.1901,0.1994,0.1982,0.1969,0.1974,0.2093,0.2093,0.2005,0.2181,0.211,0.2129,0.2132,0.2157,0.2177,0.2076,0.1869,0,0,0,0,0,0.1648,0.167,0.1709,0.1764,0.1788,0.1844,0.1899,0.1915,0.1984,0.2019,0.2037,0.2089,0.2177,0.2193,0.2269,0.2366,0.2349,0.24,0.242,0.2436,0.2375,0.2413,0.2426,0.2292,0.2292,0.2292,0,0,0.1679,0.1692,0.1706,0.1775,0.1819,0.1882,0.1868,0.1953,0.2012,0.2007,0.2105,0.2171,0.2236,0.2348,0.2396,0.2334,0.2496,0.2456,0.2468,0.2397,0.243,0.2441,0.2451,0.2303,0.2301,0.2299,0,0,0.1745,0.1763,0.1793,0.1846,0.1911,0.1951,0.1978,0.2051,0.209,0.2217,0.2234,0.2306,0.2441,0.2459,0.2496,0.2684,0.2624,0.2745,0.2718,0.2758,0.2765,0.277,0.2853,0.2864,0.2722,0.2723,0.2723,0,0.1768,0.181,0.1837,0.1883,0.1923,0.1975,0.2029,0.2108,0.2218,0.2244,0.2249,0.2433,0.2469,0.2572,0.2637,0.2704,0.2752,0.2598,0.2769,0.2774,0.2778,0.286,0.2872,0.2727,0.2726,0.2726,0.2725,0,0.1849,0.1887,0.1922,0.1966,0.2034,0.2102,0.2169,0.2249,0.2292,0.2328,0.245,0.253,0.2601,0.2662,0.2698,0.2777,0.2818,0.2803,0.2666,0.2791,0.2876,0.2887,0.2733,0.2731,0.273,0.2729,0,0,0.1839,0.1943,0.1944,0.1958,0.207,0.211,0.2233,0.232,0.2331,0.2456,0.2491,0.2645,0.2639,0.2686,0.2743,0.276,0.2868,0.2792,0.2793,0.28,0.3013,0.3044,0.3059,0.2891,0.2892,0.2892,0.3087,0,0.1874,0.1946,0.2002,0.2072,0.2112,0.2187,0.227,0.2354,0.2414,0.247,0.2553,0.2626,0.2672,0.2701,0.2741,0.2846,0.289,0.2818,0.2951,0.2954,0.2902,0.3068,0.308,0.3252,0.3097,0.3099,0.31,0,0.1896,0.195,0.2021,0.2071,0.2085,0.213,0.2197,0.2279,0.2385,0.243,0.2505,0.258,0.2689,0.2685,0.2862,0.2834,0.2917,0.2973,0.2982,0.2966,0.3002,0.3096,0.3278,0.3129,0.3117,0.3116,0.3114,0,0.1832,0.1924,0.197,0.2002,0.2105,0.2123,0.2159,0.2244,0.231,0.2389,0.2436,0.2559,0.2641,0.2759,0.2939,0.2911,0.3119,0.3089,0.3194,0.32,0.3201,0.3205,0.3168,0.3167,0.3166,0.3166,0.3165,0,0.1805,0.1821,0.1926,0.1946,0.1977,0.204,0.206,0.2111,0.2209,0.2283,0.2388,0.2486,0.2658,0.2832,0.2957,0.3152,0.3155,0.32,0.3243,0.324,0.3244,0.3102,0.303,0.3173,0.3172,0.317,0.3169,0,0.1688,0.1781,0.1843,0.1937,0.1953,0.1961,0.2035,0.2056,0.2131,0.2245,0.2298,0.2482,0.2718,0.2919,0.3126,0.3178,0.3272,0.3398,0.3411,0.3449,0.3348,0.3282,0.3186,0.3113,0.3522,0.3524,0.3525,0,0.1669,0.1676,0.1803,0.1862,0.1891,0.1924,0.1962,0.2033,0.2077,0.2263,0.2326,0.2574,0.2784,0.3117,0.3314,0.3566,0.3398,0.36,0.3494,0.3346,0.3305,0.3134,0.3064,0.3576,0.3578,0.3579,0.3581,0,0.1632,0.1655,0.1693,0.1788,0.1845,0.1924,0.1958,0.1991,0.2111,0.2214,0.2391,0.2571,0.295,0.3216,0.3511,0.3646,0.3428,0.3632,0.347,0.3327,0.3145,0.3096,0.3467,0.3594,0.3592,0.3591,0.3591,0.359,0.1625,0.1619,0.1679,0.1732,0.1817,0.1909,0.1924,0.1992,0.2092,0.2238,0.2414,0.2637,0.2998,0.3452,0.3581,0.3668,0.357,0.3553,0.3496,0.3339,0.3205,0.3613,0.3773,0.3773,0.3773,0.3773,0.3773,0,0.1671,0.1609,0.1642,0.1744,0.178,0.1848,0.1935,0.1958,0.2044,0.2213,0.2396,0.2723,0.3051,0.3322,0.354,0.3466,0.3383,0.3389,0.3131,0.3076,0.3463,0.3398,0.3492,0.3492,0.3493,0.3493,0.3493,0.3493,0.1729,0.1701,0.1668,0.1721,0.1746,0.1835,0.1876,0.1919,0.2018,0.2164,0.2309,0.2473,0.2753,0.3063,0.3132,0.3168,0.2912,0.2937,0.2802,0.3055,0.3062,0.3069,0.2985,0.2992,0.2992,0.236,0.2356,0.2352]},{"header":{"parameterUnit":"m.s-1","parameterCategory":2,"la1":30.2991,"la2":30.254,"lo1":-89.0895,"lo2":-89.0444,"dy":0.0017,"dx":0.0017,"nx":28,"ny":28,"refTime":"2023-07-22T09:00:00:Z","depth":"0","parameterNumber":3,"parameterNumberName":"V-component_of_CURRENTS"},"data":[0,0,0,0,0,0,0,0,0,0,0,0,0,0,0,0,0,0,0,0,0,0,0,0,0,0,0,0,0,0,0,0,0,0,0,0,0,0,0,0,0,0,0,0,0,0,0,0,0,0,0,0,0,0,0,0,0,0,0.0843,0.0844,0,0.0908,0.0908,0.0909,0.0877,0.0876,0.0874,0.0873,0.0795,0.0795,0.0794,0,0,0,0,0,0,0,0,0,0,0,0,0,0.08,0.08,0.0843,0.0844,0.0845,0.0908,0.0908,0.0909,0.0877,0.0876,0.0874,0.0872,0.0796,0.0795,0.0794,0,0,0,0,0,0,0,0,0,0,0,0,0,0.0834,0.08,0.0843,0.0839,0.0839,0.0907,0.0908,0.0909,0.0878,0.0876,0.0873,0.0871,0.0796,0.0795,0.0794,0.0831,0,0,0.079,0.079,0,0,0,0,0,0,0,0,0.0832,0.0835,0.0838,0.0839,0.084,0.0884,0.0865,0.0877,0.0878,0.0861,0.0873,0.087,0.0815,0.0812,0.0828,0.0827,0.0824,0.079,0.079,0.0789,0.0789,0,0,0,0,0,0,0,0.083,0.0833,0.0866,0.084,0.0841,0.0871,0.0872,0.0868,0.0845,0.0862,0.086,0.0872,0.0814,0.0829,0.0825,0.0822,0.079,0.0789,0.0789,0.0788,0.0901,0.0905,0,0,0,0,0,0,0.0824,0.0831,0.0864,0.0868,0.0833,0.0873,0.0874,0.087,0.0848,0.0844,0.0874,0.0871,0.0832,0.0827,0.0822,0.0865,0.0789,0.0788,0.0788,0.0898,0.0902,0.0906,0,0,0,0,0,0,0.0822,0.0825,0.0862,0.0854,0.0861,0.0875,0.0872,0.0873,0.0905,0.0859,0.0851,0.0907,0.083,0.0824,0.0859,0.0861,0.0788,0.0787,0.0893,0.0899,0.0904,0.0949,0,0,0,0,0,0,0.082,0.0824,0.0838,0.0853,0.0861,0.0903,0.0874,0.0876,0.0915,0.0912,0.0885,0.0874,0.0828,0.0862,0.0859,0.0858,0.0786,0.0889,0.0896,0.0902,0.0943,0.0956,0.0966,0,0,0,0,0,0.0818,0.0847,0.0838,0.0843,0.0872,0.0904,0.0912,0.0914,0.092,0.0935,0.0945,0.0876,0.0902,0.0865,0.086,0.0859,0.0885,0.0894,0.0902,0.0938,0.0953,0.0966,0,0,0,0,0,0,0.0864,0.0847,0.0837,0.0866,0.0882,0.0899,0.0921,0.094,0.0967,0.0958,0.0929,0.0921,0.0952,0.0929,0.0889,0.0923,0.088,0.0888,0.091,0.0924,0.0935,0.0861,0.0785,0,0,0,0,0,0.0875,0.0881,0.0875,0.0912,0.0902,0.0922,0.0945,0.0944,0.0964,0.0974,0.0958,0.096,0.0985,0.0973,0.0979,0.0998,0.0961,0.1,0.1012,0.1021,0.0966,0.094,0.0941,0.0933,0.0933,0.0933,0,0,0.0916,0.0906,0.0917,0.0921,0.0923,0.0933,0.0928,0.0955,0.0977,0.0961,0.0984,0.1003,0.1011,0.1032,0.1041,0.1003,0.1027,0.1031,0.1038,0.0976,0.0948,0.0948,0.0948,0.0938,0.0937,0.0937,0,0,0.0988,0.0968,0.0982,0.0978,0.0976,0.0972,0.0986,0.0994,0.0995,0.1036,0.1044,0.1055,0.1088,0.1068,0.1076,0.116,0.1104,0.1196,0.116,0.114,0.1137,0.1134,0.1161,0.1159,0.118,0.118,0.118,0,0.1022,0.1038,0.1004,0.1006,0.1009,0.099,0.1007,0.1016,0.1047,0.1049,0.1039,0.1095,0.1082,0.1115,0.1137,0.1168,0.1181,0.1099,0.1145,0.1142,0.1137,0.1164,0.1162,0.1183,0.1183,0.1183,0.1182,0,0.1099,0.1097,0.1103,0.1077,0.1084,0.1094,0.1073,0.1085,0.1083,0.108,0.1107,0.1105,0.1124,0.1143,0.1153,0.1152,0.1185,0.1175,0.1088,0.1139,0.1168,0.1165,0.1188,0.1187,0.1186,0.1185,0,0,0.1148,0.1151,0.1149,0.1131,0.1108,0.1112,0.1132,0.1129,0.1136,0.1128,0.1155,0.1154,0.1136,0.1145,0.1166,0.1117,0.1122,0.1131,0.1128,0.1116,0.1128,0.1057,0.1047,0.1134,0.1132,0.113,0.1183,0,0.1192,0.1227,0.1217,0.1226,0.1206,0.1181,0.12,0.1196,0.1182,0.1198,0.1168,0.1194,0.1151,0.1176,0.1124,0.1136,0.1106,0.1111,0.1111,0.111,0.1005,0.1035,0.1076,0.1115,0.1179,0.1178,0.1178,0,0.1214,0.1234,0.1277,0.1246,0.1236,0.1247,0.1233,0.1249,0.125,0.1245,0.1233,0.1241,0.1211,0.1171,0.1113,0.1135,0.112,0.1096,0.1098,0.0984,0.1028,0.1064,0.1105,0.1,0.1172,0.1172,0.1173,0,0.1221,0.1231,0.1275,0.127,0.127,0.1276,0.1265,0.1255,0.1277,0.1277,0.1298,0.1262,0.1257,0.121,0.1159,0.1155,0.1101,0.11,0.102,0.1019,0.1016,0.1014,0.0898,0.1035,0.1035,0.1035,0.1035,0,0.1209,0.1214,0.1275,0.129,0.1311,0.1282,0.1309,0.1288,0.1314,0.1354,0.1317,0.1346,0.1254,0.1238,0.1194,0.1091,0.1131,0.0987,0.1,0.1046,0.1047,0.092,0.0843,0.1037,0.1036,0.1036,0.1036,0,0.1143,0.122,0.1264,0.1312,0.1313,0.1324,0.1352,0.1371,0.1362,0.1431,0.1449,0.1408,0.1357,0.1293,0.1217,0.1112,0.099,0.1015,0.1089,0.1103,0.0864,0.079,0.0643,0.0628,0.0912,0.091,0.0908,0,0.1142,0.1141,0.1274,0.1332,0.1345,0.137,0.1394,0.1406,0.1438,0.148,0.1518,0.1484,0.1499,0.134,0.1169,0.1073,0.0978,0.0978,0.0909,0.0814,0.0745,0.0716,0.0715,0.099,0.0989,0.0988,0.0988,0,0.1071,0.1129,0.1165,0.1293,0.1364,0.1455,0.1477,0.1528,0.1569,0.1629,0.1672,0.1696,0.1534,0.1411,0.1202,0.1105,0.0889,0.0952,0.0842,0.0741,0.0717,0.0727,0.103,0.0982,0.0982,0.0983,0.0983,0.0983,0.1036,0.1047,0.1133,0.1226,0.1337,0.1488,0.1556,0.162,0.1719,0.1833,0.1822,0.1896,0.1681,0.1384,0.1184,0.0813,0.0827,0.0729,0.0645,0.0626,0.0572,0.0843,0.0794,0.0794,0.0794,0.0793,0.0793,0,0.1016,0.1002,0.1056,0.1235,0.1322,0.1417,0.1577,0.1672,0.1805,0.1959,0.2047,0.2038,0.1753,0.142,0.0885,0.0573,0.0544,0.0457,0.0455,0.0469,0.0719,0.0678,0.0616,0.0616,0.0616,0.0616,0.0616,0.0616,0.1033,0.1047,0.1055,0.1182,0.127,0.1464,0.1576,0.1745,0.1896,0.2118,0.2239,0.2298,0.2049,0.1094,0.0447,0.0331,0.0164,0.0155,0.0078,0.0262,0.0284,0.0304,0.0248,0.0096,0.0095,-0.0059,-0.0062,-0.0064]}],[{"header":{"parameterUnit":"m.s-1","parameterCategory":2,"la1":30.2991,"la2":30.254,"lo1":-89.0895,"lo2":-89.0444,"dy":0.0017,"dx":0.0017,"nx":28,"ny":28,"refTime":"2023-07-22T09:00:00:Z","depth":"2","parameterNumber":2,"parameterNumberName":"U-component_of_CURRENTS"},"data":[0,0,0,0,0,0,0,0,0,0,0,0,0,0,0,0,0,0,0,0,0,0,0,0,0,0,0,0,0,0,0,0,0,0,0,0,0,0,0,0,0,0,0,0,0,0,0,0,0,0,0,0,0,0,0,0,0,0,0.0586,0.0582,0,0.0254,0.025,0.0246,0.0136,0.0138,0.0139,0.0141,0.0572,0.0582,0.0592,0,0,0,0,0,0,0,0,0,0,0,0,0,0.0483,0.049,0.0586,0.0582,0.0578,0.0254,0.025,0.0245,0.0136,0.0138,0.014,0.0141,0.0569,0.0581,0.0593,0,0,0,0,0,0,0,0,0,0,0,0,0,0.0378,0.0492,0.0587,0.0485,0.0473,0.0255,0.0249,0.0244,0.0135,0.0138,0.014,0.0142,0.0565,0.058,0.0595,0.0644,0,0,0.0641,0.0648,0,0,0,0,0,0,0,0,0.0385,0.0383,0.0504,0.0492,0.0477,0.0239,0.037,0.0416,0.0135,0.0263,0.0141,0.0143,0.0531,0.0549,0.0469,0.0664,0.0682,0.0643,0.0652,0.0658,0.0663,0,0,0,0,0,0,0,0.0394,0.0392,0.0454,0.05,0.0483,0.0235,0.0229,0.0372,0.0403,0.0252,0.0243,0.0206,0.0529,0.0454,0.0481,0.0689,0.0642,0.0656,0.0665,0.0671,0.0947,0.0945,0,0,0,0,0,0,0.0469,0.0404,0.0464,0.0444,0.0436,0.0238,0.023,0.0313,0.0384,0.039,0.0205,0.0203,0.0427,0.0463,0.0497,0.0563,0.0658,0.0672,0.0681,0.0948,0.0946,0.0944,0,0,0,0,0,0,0.047,0.0482,0.0478,0.0407,0.039,0.0243,0.0332,0.0305,0.0325,0.0339,0.0362,0.0264,0.043,0.0476,0.0493,0.0582,0.0679,0.0693,0.0951,0.0948,0.0945,0.07,0,0,0,0,0,0,0.0471,0.0488,0.0569,0.0419,0.0397,0.0445,0.0329,0.0297,0.0293,0.0289,0.0399,0.0431,0.0435,0.0467,0.0507,0.0605,0.0705,0.0953,0.0949,0.0946,0.071,0.0689,0.0671,0,0,0,0,0,0.047,0.0479,0.0578,0.0582,0.0522,0.0448,0.0418,0.0308,0.0296,0.0332,0.0234,0.0433,0.0483,0.0472,0.0521,0.0627,0.0954,0.095,0.0946,0.0719,0.0693,0.0671,0,0,0,0,0,0,0.0431,0.0467,0.057,0.0598,0.0615,0.0433,0.0372,0.0379,0.0321,0.0328,0.0348,0.0369,0.0413,0.0552,0.0542,0.0692,0.0786,0.0791,0.0597,0.0575,0.0555,0.0703,0.0717,0,0,0,0,0,0.0497,0.0539,0.058,0.0607,0.0625,0.0561,0.0516,0.0513,0.0425,0.0405,0.0447,0.0473,0.0421,0.0516,0.0527,0.0643,0.0737,0.0762,0.0743,0.0725,0.0874,0.0878,0.0872,0.0931,0.0931,0.0932,0,0,0.0455,0.0498,0.051,0.0606,0.0572,0.0553,0.0539,0.0525,0.0484,0.0482,0.043,0.0411,0.0411,0.0399,0.0464,0.0557,0.0733,0.072,0.0704,0.0867,0.0873,0.0868,0.0863,0.0929,0.0929,0.093,0,0,0.0332,0.0497,0.049,0.054,0.0598,0.0568,0.0626,0.0595,0.0573,0.0532,0.0434,0.0455,0.0487,0.0452,0.0431,0.0378,0.057,0.0442,0.0548,0.054,0.0537,0.0536,0.0535,0.0536,0.0501,0.0501,0.05,0,0.0291,0.0378,0.0463,0.0484,0.0484,0.0606,0.0601,0.0564,0.0536,0.0536,0.0532,0.0507,0.0502,0.0474,0.0362,0.0358,0.0371,0.0603,0.0514,0.0516,0.0519,0.0521,0.0525,0.0488,0.049,0.0491,0.0492,0,0.0193,0.0289,0.0264,0.0374,0.0383,0.0419,0.0443,0.0487,0.0509,0.0509,0.0561,0.0506,0.0533,0.0516,0.0382,0.0441,0.0436,0.0412,0.0568,0.0498,0.0503,0.0511,0.0471,0.0475,0.0479,0.0482,0,0,0.0163,0.0182,0.0254,0.0282,0.0381,0.0387,0.0333,0.0373,0.0429,0.0488,0.051,0.0431,0.0564,0.0558,0.0533,0.0577,0.0464,0.0513,0.0518,0.051,0.0443,0.0402,0.0408,0.038,0.0383,0.0385,0.0395,0,0.0134,0.0089,0.0164,0.0186,0.0147,0.0268,0.0222,0.0281,0.0352,0.0409,0.0492,0.0545,0.0529,0.0591,0.0587,0.0425,0.0499,0.0469,0.0531,0.0537,0.0502,0.0423,0.0367,0.0371,0.0405,0.0406,0.0408,0,0.0186,0.0103,0.0038,0.0093,0.0125,0.0197,0.0299,0.0307,0.0395,0.0458,0.0613,0.0664,0.0678,0.0712,0.0646,0.0598,0.0567,0.0541,0.0537,0.0653,0.0519,0.0474,0.0388,0.0425,0.0424,0.0422,0.0421,0,0.0111,0.0163,0.0085,0.0097,0.0075,0.0159,0.0272,0.0376,0.0374,0.0606,0.07,0.0755,0.0801,0.0761,0.0633,0.0612,0.0576,0.0511,0.0542,0.0536,0.0609,0.0606,0.0647,0.0647,0.0647,0.0647,0.0647,0,0.0037,0.0143,0.0105,0.0033,0.007,0.0179,0.0289,0.0433,0.0559,0.0611,0.0825,0.092,0.0822,0.075,0.0647,0.0574,0.0578,0.0623,0.0559,0.0505,0.0493,0.068,0.0684,0.0648,0.0648,0.0648,0.0648,0,0.0117,0.0002,0.0021,0.0007,-0.0019,0.0126,0.0231,0.0384,0.0583,0.0656,0.0735,0.0896,0.0884,0.0811,0.0692,0.0622,0.0553,0.0597,0.054,0.0474,0.0523,0.0514,0.06,0.06,0.0599,0.0598,0.0598,0,0.0142,0.0117,0.0028,-0.0055,0.0009,0.0099,0.0156,0.0329,0.0489,0.0649,0.0744,0.0813,0.0821,0.0705,0.0616,0.0514,0.0586,0.0511,0.0524,0.0602,0.053,0.0521,0.0513,0.0467,0.0465,0.0464,0.0463,0,0.0219,0.0298,0.0216,0.0052,0.0089,-0.0003,0.0174,0.0165,0.0385,0.0505,0.0676,0.0679,0.0718,0.0612,0.0553,0.0473,0.0472,0.0487,0.0573,0.0485,0.0475,0.0404,0.0401,0.0452,0.0453,0.0454,0.0454,0.0455,0.0352,0.0448,0.0272,0.0309,0.0213,0.0033,0.0012,0.0155,0.0182,0.0374,0.0425,0.0571,0.0546,0.0464,0.0413,0.044,0.0449,0.0443,0.0447,0.0452,0.0434,0.0423,0.0386,0.0387,0.0388,0.0388,0.0389,0,0.033,0.0479,0.0482,0.0284,0.0275,0.0181,0.01,0.0093,0.0163,0.0296,0.0381,0.0356,0.0312,0.0388,0.0431,0.0399,0.0376,0.0386,0.0388,0.0396,0.0404,0.0385,0.0323,0.0324,0.0325,0.0326,0,0,0.0168,0.0217,0.0382,0.0325,0.0318,0.0221,0.016,0.0072,0.0127,0.0193,0.0334,0.0296,0.0377,0.0377,0.0322,0.0394,0.0394,0.0352,0.0388,0.0398,0.0408,0.0399,0.0373,0,0,0,0,0]},{"header":{"parameterUnit":"m.s-1","parameterCategory":2,"la1":30.2991,"la2":30.254,"lo1":-89.0895,"lo2":-89.0444,"dy":0.0017,"dx":0.0017,"nx":28,"ny":28,"refTime":"2023-07-22T09:00:00:Z","depth":"2","parameterNumber":3,"parameterNumberName":"V-component_of_CURRENTS"},"data":[0,0,0,0,0,0,0,0,0,0,0,0,0,0,0,0,0,0,0,0,0,0,0,0,0,0,0,0,0,0,0,0,0,0,0,0,0,0,0,0,0,0,0,0,0,0,0,0,0,0,0,0,0,0,0,0,0,0,-0.0092,-0.0093,0,-0.0324,-0.0328,-0.0332,-0.0492,-0.0491,-0.0491,-0.049,-0.0269,-0.0264,-0.0259,0,0,0,0,0,0,0,0,0,0,0,0,0,-0.0189,-0.0186,-0.0092,-0.0093,-0.0094,-0.0323,-0.0328,-0.0334,-0.0492,-0.0491,-0.049,-0.0489,-0.0271,-0.0265,-0.0258,0,0,0,0,0,0,0,0,0,0,0,0,0,-0.0277,-0.0185,-0.0092,-0.0184,-0.0193,-0.0322,-0.0328,-0.0335,-0.0493,-0.0491,-0.049,-0.0489,-0.0273,-0.0265,-0.0258,-0.0237,0,0,-0.0234,-0.0231,0,0,0,0,0,0,0,0,-0.0271,-0.0276,-0.017,-0.0178,-0.0188,-0.0358,-0.0281,-0.0272,-0.0493,-0.0403,-0.049,-0.0488,-0.0242,-0.0238,-0.0323,-0.0226,-0.0217,-0.0234,-0.0229,-0.0226,-0.0224,0,0,0,0,0,0,0,-0.0264,-0.0269,-0.0207,-0.017,-0.0181,-0.035,-0.036,-0.0286,-0.0336,-0.0411,-0.0417,-0.0407,-0.0248,-0.0331,-0.0317,-0.0214,-0.0234,-0.0227,-0.0222,-0.0219,-0.0135,-0.0137,0,0,0,0,0,0,-0.017,-0.026,-0.0199,-0.0211,-0.0202,-0.0345,-0.0358,-0.0323,-0.0347,-0.0347,-0.0408,-0.0413,-0.0344,-0.0326,-0.0308,-0.0306,-0.0226,-0.0219,-0.0214,-0.0132,-0.0135,-0.0138,0,0,0,0,0,0,-0.0171,-0.0161,-0.0189,-0.0226,-0.0238,-0.034,-0.0303,-0.0328,-0.0379,-0.0346,-0.0342,-0.0426,-0.0342,-0.0319,-0.0329,-0.0295,-0.0215,-0.0208,-0.013,-0.0133,-0.0136,-0.0281,0,0,0,0,0,0,-0.0172,-0.016,-0.0134,-0.0217,-0.0231,-0.0247,-0.0303,-0.0333,-0.0365,-0.0375,-0.0358,-0.0342,-0.034,-0.0342,-0.0322,-0.0283,-0.0202,-0.0127,-0.0131,-0.0135,-0.0273,-0.0289,-0.0302,0,0,0,0,0,-0.0175,-0.0191,-0.0131,-0.0125,-0.018,-0.0245,-0.0272,-0.0359,-0.0366,-0.0401,-0.0457,-0.0341,-0.0352,-0.0341,-0.0316,-0.0273,-0.0125,-0.013,-0.0135,-0.0267,-0.0286,-0.0302,0,0,0,0,0,0,-0.0263,-0.0207,-0.0146,-0.0146,-0.0151,-0.0263,-0.0335,-0.0333,-0.0418,-0.0412,-0.0399,-0.0389,-0.0385,-0.0317,-0.0305,-0.0267,-0.0202,-0.0203,-0.0311,-0.0328,-0.0342,-0.0219,-0.0196,0,0,0,0,0,-0.0236,-0.0214,-0.0175,-0.0176,-0.018,-0.0229,-0.027,-0.0276,-0.034,-0.038,-0.0372,-0.0368,-0.0395,-0.0355,-0.0358,-0.0319,-0.0247,-0.0268,-0.0283,-0.0295,-0.0184,-0.0171,-0.0173,-0.0155,-0.0155,-0.0155,0,0,-0.0266,-0.0235,-0.022,-0.0188,-0.0231,-0.0246,-0.0262,-0.0295,-0.0316,-0.0322,-0.0393,-0.0412,-0.0408,-0.0439,-0.0415,-0.0362,-0.0284,-0.0302,-0.0313,-0.0191,-0.0176,-0.0177,-0.0178,-0.0158,-0.0158,-0.0157,0,0,-0.0347,-0.0286,-0.0289,-0.0276,-0.025,-0.0272,-0.0246,-0.0287,-0.0329,-0.0362,-0.0414,-0.0403,-0.0422,-0.0428,-0.0432,-0.0489,-0.0387,-0.0495,-0.0426,-0.0423,-0.0422,-0.042,-0.0414,-0.041,-0.0472,-0.0473,-0.0473,0,-0.0356,-0.0333,-0.0314,-0.0314,-0.0304,-0.0262,-0.026,-0.0315,-0.035,-0.0345,-0.0374,-0.0394,-0.0399,-0.0395,-0.0479,-0.05,-0.0509,-0.0375,-0.0438,-0.0434,-0.0429,-0.0422,-0.0416,-0.048,-0.0479,-0.0478,-0.0478,0,-0.0414,-0.0388,-0.0419,-0.0361,-0.0375,-0.0362,-0.0356,-0.0374,-0.0375,-0.036,-0.0339,-0.0386,-0.0355,-0.0396,-0.0475,-0.044,-0.0469,-0.0491,-0.0387,-0.0439,-0.0431,-0.0422,-0.0491,-0.0488,-0.0486,-0.0484,0,0,-0.0348,-0.0428,-0.0383,-0.0384,-0.0359,-0.0357,-0.0414,-0.0391,-0.0342,-0.0351,-0.0311,-0.0373,-0.0297,-0.0294,-0.0336,-0.0329,-0.0395,-0.0412,-0.0409,-0.0389,-0.0415,-0.0419,-0.0409,-0.0481,-0.0479,-0.0477,-0.0452,0,-0.0339,-0.0362,-0.0378,-0.0373,-0.041,-0.0387,-0.044,-0.0406,-0.0364,-0.0329,-0.0286,-0.0242,-0.0291,-0.0261,-0.0279,-0.0404,-0.0365,-0.0397,-0.037,-0.0366,-0.0352,-0.0394,-0.0444,-0.0423,-0.0442,-0.044,-0.0439,0,-0.0267,-0.0337,-0.0355,-0.0397,-0.0389,-0.0349,-0.0301,-0.0319,-0.0268,-0.0227,-0.0115,-0.0099,-0.0097,-0.0123,-0.0189,-0.0245,-0.0288,-0.0339,-0.0341,-0.0241,-0.0348,-0.0357,-0.0404,-0.0422,-0.0423,-0.0425,-0.0426,0,-0.0203,-0.0228,-0.0249,-0.0254,-0.0349,-0.0313,-0.0285,-0.0236,-0.0254,-0.0079,-0.0007,0.0023,0.0027,-0.0022,-0.0163,-0.0203,-0.0244,-0.0307,-0.0284,-0.0288,-0.0245,-0.0248,-0.0219,-0.0219,-0.0219,-0.0219,-0.0219,0,-0.0147,-0.0102,-0.019,-0.0223,-0.0217,-0.023,-0.0154,-0.0106,-0.0059,-0.0004,0.0115,0.0169,0.004,-0.0033,-0.0128,-0.0202,-0.0201,-0.0214,-0.0259,-0.0311,-0.0319,-0.0223,-0.0224,-0.0218,-0.0218,-0.0219,-0.0219,0,-0.0007,-0.0083,-0.0108,-0.019,-0.0222,-0.0145,-0.0151,-0.0067,0.0029,0.0103,0.0149,0.0173,0.0118,0.0025,-0.0105,-0.0146,-0.0205,-0.0186,-0.0241,-0.0288,-0.0255,-0.0265,-0.016,-0.016,-0.0159,-0.0159,-0.0158,0,0.0029,0.0018,-0.0071,-0.0117,-0.0116,-0.0084,-0.0088,-0.004,0.0058,0.0115,0.0175,0.0142,0.0154,0.0013,-0.0091,-0.0165,-0.0183,-0.0203,-0.0217,-0.0183,-0.0238,-0.0248,-0.0258,-0.0267,-0.0268,-0.0268,-0.0269,0,0.0038,0.0096,0.0055,-0.0017,0.0003,-0.0067,-0.0003,0.0004,0.008,0.0178,0.0258,0.0248,0.0173,0.0015,-0.0083,-0.0131,-0.0219,-0.021,-0.0162,-0.0269,-0.0281,-0.0337,-0.0343,-0.0273,-0.0272,-0.0272,-0.0272,-0.0272,0.0096,0.0138,0.0085,0.0137,0.01,0.0012,0.0013,0.0103,0.0143,0.0265,0.0238,0.0301,0.0062,-0.0068,-0.0163,-0.0195,-0.0171,-0.0228,-0.0228,-0.0228,-0.0239,-0.0248,-0.0237,-0.0236,-0.0235,-0.0235,-0.0235,0,0.0072,0.0161,0.0169,0.0133,0.0156,0.0103,0.0084,0.0133,0.0266,0.0278,0.0357,0.0163,0.0017,-0.0146,-0.0187,-0.0235,-0.0235,-0.0278,-0.0317,-0.0313,-0.031,-0.0327,-0.0347,-0.0347,-0.0347,-0.0347,0,0,-0.0004,0.0035,0.012,0.0152,0.0178,0.0178,0.0171,0.0272,0.031,0.0309,0.0298,0.0194,-0.0019,-0.0137,-0.0275,-0.0285,-0.0263,-0.0277,-0.0189,-0.022,-0.0215,-0.0292,-0.0315,0,0,0,0,0]}],[{"header":{"parameterUnit":"m.s-1","parameterCategory":2,"la1":30.2991,"la2":30.254,"lo1":-89.0895,"lo2":-89.0444,"dy":0.0017,"dx":0.0017,"nx":28,"ny":28,"refTime":"2023-07-22T09:00:00:Z","depth":"4","parameterNumber":2,"parameterNumberName":"U-component_of_CURRENTS"},"data":[0,0,0,0,0,0,0,0,0,0,0,0,0,0,0,0,0,0,0,0,0,0,0,0,0,0,0,0,0,0,0,0,0,0,0,0,0,0,0,0,0,0,0,0,0,0,0,0,0,0,0,0,0,0,0,0,0,0,-0.0427,-0.0427,0,-0.0383,-0.0382,-0.038,-0.0329,-0.0329,-0.0329,-0.0329,-0.0317,-0.0317,-0.0316,0,0,0,0,0,0,0,0,0,0,0,0,0,-0.0355,-0.0357,-0.0427,-0.0427,-0.0427,-0.0383,-0.0382,-0.038,-0.0329,-0.0329,-0.0329,-0.0329,-0.0317,-0.0317,-0.0316,0,0,0,0,0,0,0,0,0,0,0,0,0,-0.0349,-0.0358,-0.0427,-0.0402,-0.04,-0.0383,-0.0381,-0.038,-0.0329,-0.0329,-0.0329,-0.0329,-0.0317,-0.0317,-0.0316,-0.0316,0,0,-0.0315,-0.0315,0,0,0,0,0,0,0,0,-0.035,-0.0351,-0.0405,-0.0404,-0.0401,-0.0368,-0.0352,-0.0363,-0.0329,-0.0348,-0.0329,-0.0329,-0.0342,-0.034,-0.032,-0.0316,-0.0315,-0.0315,-0.0315,-0.0315,-0.0315,0,0,0,0,0,0,0,-0.035,-0.0352,-0.0401,-0.0406,-0.0403,-0.0356,-0.0355,-0.0353,-0.0341,-0.0346,-0.0344,-0.0352,-0.034,-0.032,-0.032,-0.0315,-0.0315,-0.0315,-0.0315,-0.0314,-0.0395,-0.0397,0,0,0,0,0,0,-0.0378,-0.0353,-0.0403,-0.0401,-0.0384,-0.0358,-0.0357,-0.0372,-0.034,-0.0337,-0.0352,-0.035,-0.0321,-0.032,-0.0319,-0.0363,-0.0315,-0.0314,-0.0314,-0.0392,-0.0395,-0.0398,0,0,0,0,0,0,-0.0377,-0.0383,-0.0405,-0.0381,-0.0382,-0.0361,-0.0378,-0.0372,-0.0367,-0.0345,-0.0341,-0.0356,-0.0321,-0.032,-0.0337,-0.0361,-0.0314,-0.0314,-0.039,-0.0393,-0.0397,-0.0422,0,0,0,0,0,0,-0.0375,-0.0383,-0.039,-0.0384,-0.0385,-0.0406,-0.0379,-0.0371,-0.0375,-0.0371,-0.0348,-0.0345,-0.0321,-0.0338,-0.0337,-0.0359,-0.0314,-0.0387,-0.0391,-0.0395,-0.0418,-0.0426,-0.0433,0,0,0,0,0,-0.0372,-0.0385,-0.0391,-0.0396,-0.04,-0.0408,-0.0402,-0.0381,-0.0376,-0.0374,-0.0368,-0.0347,-0.0366,-0.0339,-0.0338,-0.036,-0.0385,-0.039,-0.0395,-0.0415,-0.0424,-0.0432,0,0,0,0,0,0,-0.0341,-0.0382,-0.0387,-0.0408,-0.0416,-0.0402,-0.0397,-0.0395,-0.0385,-0.0382,-0.0364,-0.0362,-0.0379,-0.0383,-0.0354,-0.0404,-0.0378,-0.0383,-0.0394,-0.0402,-0.0409,-0.04,-0.0313,0,0,0,0,0,-0.0346,-0.0375,-0.0397,-0.0411,-0.0421,-0.0415,-0.0413,-0.0405,-0.0404,-0.0398,-0.0389,-0.0393,-0.0397,-0.0411,-0.0402,-0.0434,-0.0431,-0.0457,-0.0464,-0.047,-0.0466,-0.0492,-0.05,-0.0415,-0.0415,-0.0415,0,0,-0.033,-0.0364,-0.0372,-0.0408,-0.0409,-0.042,-0.0411,-0.0417,-0.0417,-0.0402,-0.04,-0.0403,-0.0409,-0.0428,-0.0441,-0.0438,-0.0496,-0.0476,-0.0481,-0.0473,-0.0498,-0.0506,-0.0512,-0.0419,-0.0418,-0.0418,0,0,-0.0322,-0.0354,-0.0373,-0.0394,-0.0421,-0.0422,-0.0436,-0.0439,-0.0431,-0.0444,-0.0432,-0.0449,-0.0467,-0.0464,-0.047,-0.0521,-0.0518,-0.0549,-0.0589,-0.0615,-0.0621,-0.0626,-0.0635,-0.0641,-0.057,-0.057,-0.057,0,-0.0305,-0.0339,-0.0373,-0.0403,-0.0416,-0.0433,-0.0444,-0.0442,-0.0447,-0.0442,-0.0451,-0.0473,-0.0472,-0.0497,-0.0527,-0.0529,-0.0556,-0.0546,-0.062,-0.0626,-0.063,-0.0639,-0.0645,-0.0572,-0.0572,-0.0572,-0.0572,0,-0.0311,-0.034,-0.0355,-0.0405,-0.0419,-0.0435,-0.0454,-0.0458,-0.0466,-0.0462,-0.0482,-0.0494,-0.0514,-0.0533,-0.0549,-0.0601,-0.0612,-0.0607,-0.0587,-0.064,-0.0646,-0.0652,-0.0575,-0.0574,-0.0574,-0.0573,0,0,-0.0299,-0.0347,-0.0361,-0.0372,-0.0425,-0.0433,-0.0447,-0.0455,-0.0457,-0.0477,-0.0477,-0.0519,-0.0541,-0.0554,-0.0584,-0.0627,-0.0686,-0.0662,-0.0662,-0.0651,-0.0759,-0.0581,-0.057,-0.0717,-0.0719,-0.072,-0.0749,0,-0.03,-0.0331,-0.0366,-0.0389,-0.0401,-0.0429,-0.044,-0.0447,-0.046,-0.0463,-0.0484,-0.051,-0.0549,-0.0586,-0.063,-0.0662,-0.0706,-0.0679,-0.0727,-0.0727,-0.0545,-0.0571,-0.0724,-0.0753,-0.0754,-0.0755,-0.0756,0,-0.032,-0.0333,-0.0344,-0.0373,-0.0383,-0.0399,-0.0417,-0.0435,-0.0446,-0.0455,-0.0491,-0.0518,-0.0579,-0.0608,-0.0694,-0.0692,-0.0739,-0.0764,-0.0766,-0.0589,-0.0558,-0.0692,-0.0766,-0.0765,-0.0764,-0.0763,-0.0763,0,-0.0304,-0.0337,-0.0336,-0.0351,-0.0375,-0.038,-0.0403,-0.0424,-0.0432,-0.0471,-0.0479,-0.0543,-0.0586,-0.0652,-0.0694,-0.0736,-0.0752,-0.08,-0.0677,-0.0665,-0.0805,-0.0799,-0.0861,-0.0861,-0.0861,-0.0861,-0.0861,0,-0.0316,-0.033,-0.0322,-0.0329,-0.0319,-0.0362,-0.0373,-0.0395,-0.0425,-0.0426,-0.0494,-0.0497,-0.0616,-0.0629,-0.068,-0.0654,-0.0739,-0.0671,-0.0655,-0.0818,-0.0813,-0.0809,-0.0803,-0.0862,-0.0862,-0.0862,-0.0861,0,-0.0324,-0.0323,-0.0324,-0.0324,-0.0315,-0.0322,-0.0352,-0.0361,-0.0407,-0.0411,-0.0435,-0.049,-0.0508,-0.0546,-0.0622,-0.0616,-0.0612,-0.0583,-0.0714,-0.0707,-0.0532,-0.0528,-0.0497,-0.0491,-0.0486,-0.0482,-0.0478,0,-0.0318,-0.0321,-0.0307,-0.0288,-0.0291,-0.0296,-0.0292,-0.034,-0.0355,-0.0381,-0.0371,-0.0399,-0.0419,-0.0371,-0.0422,-0.0439,-0.0447,-0.0462,-0.0549,-0.0504,-0.0494,-0.0497,-0.05,-0.047,-0.0468,-0.0467,-0.0466,0,-0.0307,-0.0319,-0.0323,-0.028,-0.0264,-0.0236,-0.0246,-0.0242,-0.0293,-0.033,-0.0312,-0.0303,-0.0277,-0.0301,-0.0277,-0.0302,-0.0461,-0.0409,-0.0424,-0.0507,-0.0471,-0.0466,-0.0474,-0.0447,-0.045,-0.0452,-0.0453,0,-0.0307,-0.031,-0.0309,-0.0284,-0.0241,-0.0178,-0.0187,-0.0188,-0.0201,-0.0248,-0.0224,-0.0221,-0.0266,-0.0222,-0.019,-0.0176,-0.0231,-0.0287,-0.031,-0.033,-0.025,-0.0179,-0.0042,0,0,0,0,0,-0.0287,-0.0305,-0.0292,-0.0245,-0.0203,-0.0164,-0.0149,-0.0166,-0.0199,-0.0177,-0.0209,-0.0173,-0.0132,-0.0125,-0.0086,-0.0103,-0.0218,-0.0055,-0.0292,-0.0347,-0.0368,-0.0283,0,0,0,0,0,0,-0.0273,-0.0284,-0.0301,-0.0217,-0.0164,-0.0097,-0.0076,-0.0091,-0.0092,-0.0134,-0.0117,-0.0151,-0.0116,-0.0151,-0.0081,-0.0076,-0.0218,-0.0057,-0.0056,-0.0335,-0.0354,-0.0371,-0.0291,0,0,0,0,0]},{"header":{"parameterUnit":"m.s-1","parameterCategory":2,"la1":30.2991,"la2":30.254,"lo1":-89.0895,"lo2":-89.0444,"dy":0.0017,"dx":0.0017,"nx":28,"ny":28,"refTime":"2023-07-22T09:00:00:Z","depth":"4","parameterNumber":3,"parameterNumberName":"V-component_of_CURRENTS"},"data":[0,0,0,0,0,0,0,0,0,0,0,0,0,0,0,0,0,0,0,0,0,0,0,0,0,0,0,0,0,0,0,0,0,0,0,0,0,0,0,0,0,0,0,0,0,0,0,0,0,0,0,0,0,0,0,0,0,0,-0.0385,-0.0385,0,-0.0409,-0.0409,-0.0409,-0.0443,-0.0444,-0.0444,-0.0445,-0.0461,-0.0461,-0.0461,0,0,0,0,0,0,0,0,0,0,0,0,0,-0.0329,-0.033,-0.0385,-0.0385,-0.0386,-0.0409,-0.0409,-0.0409,-0.0443,-0.0444,-0.0444,-0.0445,-0.0461,-0.0461,-0.0461,0,0,0,0,0,0,0,0,0,0,0,0,0,-0.0352,-0.033,-0.0385,-0.0406,-0.0408,-0.0409,-0.0409,-0.0409,-0.0443,-0.0444,-0.0445,-0.0446,-0.0461,-0.0461,-0.0461,-0.044,0,0,-0.046,-0.046,0,0,0,0,0,0,0,0,-0.0351,-0.0354,-0.0402,-0.0404,-0.0407,-0.0425,-0.0395,-0.0419,-0.0442,-0.0429,-0.0445,-0.0446,-0.0448,-0.0449,-0.045,-0.044,-0.0441,-0.046,-0.046,-0.046,-0.046,0,0,0,0,0,0,0,-0.0349,-0.0353,-0.0393,-0.0403,-0.0405,-0.0401,-0.0405,-0.04,-0.0432,-0.043,-0.0433,-0.0436,-0.0449,-0.045,-0.0451,-0.0441,-0.046,-0.046,-0.046,-0.046,-0.0517,-0.0518,0,0,0,0,0,0,-0.0349,-0.0352,-0.0393,-0.0394,-0.0382,-0.0401,-0.0406,-0.0417,-0.0432,-0.0436,-0.0435,-0.0438,-0.045,-0.0451,-0.0452,-0.0498,-0.046,-0.046,-0.0459,-0.0515,-0.0517,-0.0519,0,0,0,0,0,0,-0.0348,-0.0353,-0.0392,-0.0374,-0.0379,-0.0401,-0.0413,-0.0417,-0.0442,-0.0437,-0.044,-0.0459,-0.0451,-0.0452,-0.0485,-0.0496,-0.046,-0.0459,-0.0513,-0.0516,-0.0518,-0.0544,0,0,0,0,0,0,-0.0346,-0.0352,-0.0353,-0.0374,-0.038,-0.0407,-0.0412,-0.0417,-0.0442,-0.0446,-0.0457,-0.0459,-0.0452,-0.0485,-0.0485,-0.0495,-0.0459,-0.0511,-0.0514,-0.0517,-0.0541,-0.0547,-0.0552,0,0,0,0,0,-0.0344,-0.0346,-0.0353,-0.0358,-0.0383,-0.0407,-0.041,-0.0428,-0.0442,-0.0454,-0.0479,-0.046,-0.0505,-0.0487,-0.0485,-0.0495,-0.0509,-0.0513,-0.0517,-0.0539,-0.0546,-0.0552,0,0,0,0,0,0,-0.0325,-0.035,-0.0359,-0.0369,-0.0393,-0.0414,-0.0419,-0.044,-0.0466,-0.047,-0.0478,-0.0481,-0.0504,-0.0508,-0.0488,-0.0526,-0.0504,-0.0508,-0.0522,-0.0528,-0.0534,-0.0542,-0.0459,0,0,0,0,0,-0.032,-0.0325,-0.0356,-0.0363,-0.0376,-0.0402,-0.0413,-0.0429,-0.0455,-0.0469,-0.0488,-0.0505,-0.0513,-0.0531,-0.0529,-0.0556,-0.0547,-0.0565,-0.0571,-0.0576,-0.0584,-0.0597,-0.0604,-0.0531,-0.0531,-0.0531,0,0,-0.0313,-0.0326,-0.033,-0.0358,-0.0375,-0.04,-0.0412,-0.0432,-0.0457,-0.0463,-0.0507,-0.0513,-0.0522,-0.0545,-0.0558,-0.0558,-0.0589,-0.058,-0.0584,-0.059,-0.0602,-0.0608,-0.0614,-0.0534,-0.0533,-0.0533,0,0,-0.0306,-0.0319,-0.0325,-0.0347,-0.0374,-0.0395,-0.041,-0.0449,-0.047,-0.0511,-0.0517,-0.0548,-0.0571,-0.0584,-0.0591,-0.0632,-0.0605,-0.0633,-0.0681,-0.0693,-0.0698,-0.0703,-0.0681,-0.0684,-0.0652,-0.0652,-0.0652,0,-0.0304,-0.0318,-0.0331,-0.0349,-0.0373,-0.0402,-0.043,-0.0449,-0.0498,-0.0522,-0.053,-0.0587,-0.0588,-0.0625,-0.0645,-0.0641,-0.0637,-0.0648,-0.0698,-0.0703,-0.0707,-0.0684,-0.0686,-0.0654,-0.0654,-0.0654,-0.0653,0,-0.0305,-0.0323,-0.0332,-0.0368,-0.0392,-0.0419,-0.0456,-0.0487,-0.0522,-0.055,-0.0599,-0.0619,-0.0663,-0.0664,-0.0669,-0.0708,-0.0688,-0.0686,-0.0674,-0.0716,-0.0688,-0.0691,-0.0656,-0.0656,-0.0655,-0.0655,0,0,-0.0319,-0.033,-0.0344,-0.0361,-0.0409,-0.0434,-0.0473,-0.0525,-0.0562,-0.0606,-0.0656,-0.069,-0.0716,-0.0728,-0.0738,-0.0761,-0.0777,-0.075,-0.075,-0.0716,-0.0785,-0.0719,-0.0715,-0.0787,-0.0788,-0.0789,-0.0745,0,-0.0335,-0.0356,-0.037,-0.0416,-0.0438,-0.0476,-0.0513,-0.0556,-0.06,-0.0649,-0.0679,-0.0723,-0.0735,-0.0764,-0.0789,-0.0779,-0.0789,-0.0788,-0.0761,-0.076,-0.0687,-0.0718,-0.0792,-0.0746,-0.0746,-0.0747,-0.0747,0,-0.0361,-0.0367,-0.04,-0.044,-0.0458,-0.0491,-0.0566,-0.0604,-0.0662,-0.0694,-0.0753,-0.0773,-0.0822,-0.0816,-0.0841,-0.0843,-0.0822,-0.0808,-0.0806,-0.0741,-0.07,-0.0703,-0.0751,-0.075,-0.075,-0.075,-0.075,0,-0.0379,-0.041,-0.0433,-0.0449,-0.0488,-0.052,-0.0562,-0.0625,-0.0656,-0.0734,-0.0754,-0.0821,-0.0846,-0.0857,-0.0843,-0.0851,-0.0835,-0.0836,-0.075,-0.0743,-0.0801,-0.0796,-0.0839,-0.0839,-0.0839,-0.0839,-0.0839,0,-0.0411,-0.044,-0.0439,-0.0458,-0.0497,-0.0531,-0.0591,-0.0643,-0.0691,-0.0717,-0.0785,-0.0791,-0.0862,-0.0858,-0.0846,-0.0801,-0.0841,-0.0759,-0.0737,-0.081,-0.0808,-0.08,-0.0796,-0.0837,-0.0838,-0.0838,-0.0838,0,-0.0443,-0.0444,-0.0469,-0.0494,-0.0506,-0.0544,-0.0596,-0.063,-0.0684,-0.0713,-0.0735,-0.078,-0.0775,-0.08,-0.08,-0.079,-0.0758,-0.0722,-0.0776,-0.0757,-0.0654,-0.0653,-0.0638,-0.0636,-0.0634,-0.0632,-0.063,0,-0.0453,-0.0458,-0.0488,-0.0498,-0.0516,-0.0557,-0.0582,-0.0635,-0.0654,-0.0678,-0.0673,-0.0687,-0.0705,-0.0657,-0.0685,-0.0665,-0.0654,-0.0655,-0.0687,-0.0658,-0.0639,-0.064,-0.0641,-0.0627,-0.0627,-0.0626,-0.0625,0,-0.0453,-0.0469,-0.0491,-0.0509,-0.0533,-0.0555,-0.0585,-0.0584,-0.0624,-0.065,-0.0618,-0.0614,-0.0589,-0.0602,-0.0595,-0.0574,-0.0681,-0.0633,-0.0638,-0.0668,-0.0644,-0.0628,-0.0631,-0.0618,-0.0619,-0.062,-0.062,0,-0.0451,-0.0465,-0.0484,-0.0509,-0.0536,-0.0547,-0.0568,-0.0559,-0.0573,-0.0585,-0.0552,-0.0547,-0.0565,-0.0545,-0.052,-0.0522,-0.0521,-0.0546,-0.0556,-0.0564,-0.0563,-0.0523,-0.0444,0,0,0,0,0,-0.0426,-0.044,-0.0467,-0.0496,-0.0532,-0.0543,-0.0558,-0.0567,-0.0568,-0.0539,-0.0551,-0.0515,-0.0492,-0.048,-0.0465,-0.048,-0.0528,-0.0463,-0.0563,-0.0578,-0.0587,-0.0593,0,0,0,0,0,0,-0.041,-0.0432,-0.0457,-0.048,-0.0497,-0.0524,-0.0534,-0.0539,-0.0519,-0.0518,-0.05,-0.0505,-0.0479,-0.0494,-0.0459,-0.0459,-0.052,-0.0457,-0.0456,-0.0574,-0.0581,-0.0588,-0.0598,0,0,0,0,0]}]]